Weather in Komarovo

Russia / Republic of North Ossetia — Alania     43°44′52″N   44°45′34″E
temp.,
°C
wind,
m/s
gust,
m/s
humid.,
%
clouds,
%
prec.,
mm/h
press.,
hPa
HPBL,
m
7 march, sun
sun700:00+9wnw2352100 0.0 101432
03:00+7nw71276100 0.0 10171074
06:00+1nw71069100 0.1 10231210
09:00+1wnw4664100 0.2 10251067
12:00+3nw4433100 0.0 10241433
15:00+5n332665 0.0 10221451
18:00+3ne22342 0.0 102338
21:00+1e33412 0.0 102386
8 march, mon
mon800:000ese35460 0.0 1022101
03:00−1ese225117 0.0 102241
06:00−1ese115047 0.0 102221
09:00+3e113943 0.0 1020342
12:00+5ene343767 0.0 10181166
15:00+6ne334383 0.0 10171476
18:00+5ene1259100 0.0 101741
21:00+3se226698 0.0 101934
9 march, tue
tue900:00+2se117490 0.0 101822
03:00+2wsw117694 0.0 101822
06:00+1wsw237598 0.0 101850
09:00+4w226090 0.0 1017305
12:00+7sw21410 0.0 10161499
15:00+9w24370 0.0 10161800
18:00+7nw124770 0.0 101827
21:00+4wnw367085 0.3 1021797
10 march, wed
wed1000:00+3nw2485100 0.3 1022502
03:00+2wnw2394100 0.8 1023281
06:00+1wnw377596 0.6 1024445
09:00+2nw345397 0.6 10241095
12:00+4nw344598 0.0 10231404
15:00+5nnw234299 0.0 10211542
18:00+4nne4550100 0.0 1022466
21:00+2ene4649100 0.0 1022620
11 march, thu
thu1100:00+1ene6850100 0.1 1021969
03:00−2ene71093100 1.2 1021621
06:00−3ene71094100 2.0 1021653
09:00−4ene71193100 4.1 1021768
12:00−3ene81193100 2.0 1020873
15:00−5ene81193100 4.1 1019841
18:00−7ene61095100 2.1 1021743
21:00−7ene5995100 4.1 1024641